FW7016 Weather Reports


Display with metric or nautical units.
time (UTC)temp
F
wind
direction
speed
MPH
gust
MPH
rain 1hr
in
rain 24hr
in
rain mn
in
humidity
%
barometer
mb
20260906035813 67 100 9.0 11.0 0.00 0.00 0.00 74 1020.9
20260906035309 67 109 9.0 14.0 0.00 0.00 0.00 74 1021.3
20260906034803 67 134 11.0 13.0 0.00 0.00 0.00 73 1021.0
20260906034258 68 132 9.0 11.0 0.00 0.00 0.00 72 1020.8
20260906033754 68 119 7.0 13.0 0.00 0.00 0.00 71 1020.8
20260906033253 68 117 6.0 9.0 0.00 0.00 0.00 70 1020.8
20260906032750 69 138 6.0 9.0 0.00 0.00 0.00 69 1020.9
20260906032250 69 153 9.0 14.0 0.00 0.00 0.00 68 1020.8
20260906031745 70 118 9.0 11.0 0.00 0.00 0.00 65 1020.7
20260906031241 70 128 9.0 10.0 0.00 0.00 0.00 63 1020.6
20260906030740 70 116 9.0 15.0 0.00 0.00 0.00 62 1020.7
20260906030235 71 140 10.0 14.0 0.00 0.00 0.00 61 1020.4
20260906025734 71 94 5.0 8.0 0.00 0.00 0.00 60 1020.8
20260906025229 71 123 8.0 11.0 0.00 0.00 0.00 60 1020.3
20260906024728 72 123 8.0 9.0 0.00 0.00 0.00 60 1020.1
20260906024227 73 112 7.0 10.0 0.00 0.00 0.00 59 1020.1
20260906023724 73 72 5.0 8.0 0.00 0.00 0.00 58 1019.9
20260906023219 72 122 7.0 11.0 0.00 0.00 0.00 58 1019.9
20260906022714 73 83 1.0 3.0 0.00 0.00 0.00 54 1019.7
20260906022209 74 145 4.0 6.0 0.00 0.00 0.00 53 1019.6
20260906021705 75 153 3.0 5.0 0.00 0.00 0.00 52 1019.1
20260906021204 74 128 7.0 8.0 0.00 0.00 0.00 50 1019.5
20260906020659 74 121 5.0 8.0 0.00 0.00 0.00 45 1019.3
20260906020154 75 46 3.0 6.0 0.00 0.00 0.00 44 1019.3
20260906015648 76 74 5.0 8.0 0.00 0.00 0.00 42 1018.9
20260906015146 76 62 5.0 7.0 0.00 0.00 0.00 43 1019.0
20260906014641 77 60 6.0 9.0 0.00 0.00 0.00 42 1019.0
20260906014137 77 42 3.0 5.0 0.00 0.00 0.00 41 1019.1
20260906013632 77 66 3.0 3.0 0.00 0.00 0.00 42 1019.1
20260906013127 77 55 0.0 1.0 0.00 0.00 0.00 40 1019.3
20260906012616 78 101 1.0 3.0 0.00 0.00 0.00 40 1019.0
20260906012117 79 124 0.0 0.0 0.00 0.00 0.00 39 1018.8
20260906011612 80 209 2.0 3.0 0.00 0.00 0.00 38 1018.8
20260906011107 82 90 4.0 6.0 0.00 0.00 0.00 36 1019.1
20260906010602 82 8 5.0 6.0 0.00 0.00 0.00 35 1018.9
20260906010058 82 10 5.0 6.0 0.00 0.00 0.00 35 1018.9
20260906005557 83 46 5.0 6.0 0.00 0.00 0.00 35 1018.7
20260906005057 84 31 4.0 5.0 0.00 0.00 0.00 34 1018.9
20260906004556 85 16 4.0 5.0 0.00 0.00 0.00 34 1018.9
20260906004051 85 331 5.0 6.0 0.00 0.00 0.00 33 1019.1
20260906003546 85 36 5.0 7.0 0.00 0.00 0.00 32 1019.0
20260906003042 85 13 6.0 7.0 0.00 0.00 0.00 31 1018.8
20260906002537 85 180 4.0 8.0 0.00 0.00 0.00 31 1018.8
20260906002031 85 29 5.0 7.0 0.00 0.00 0.00 32 1018.9
20260906001527 85 43 4.0 6.0 0.00 0.00 0.00 31 1018.7
20260906001021 85 252 4.0 6.0 0.00 0.00 0.00 31 1019.1
20260906000518 86 18 5.0 6.0 0.00 0.00 0.00 31 1019.0
20260906000018 85 39 7.0 8.0 0.00 0.00 0.00 31 1018.7
20260905235511 86 13 8.0 9.0 0.00 0.00 0.00 31 1018.8
20260905235006 86 338 5.0 8.0 0.00 0.00 0.00 30 1018.9
20260905234503 86 9 5.0 8.0 0.00 0.00 0.00 30 1019.1
20260905233956 87 20 9.0 9.0 0.00 0.00 0.00 29 1018.8
20260905233452 87 40 3.0 10.0 0.00 0.00 0.00 30 1018.9
20260905232950 87 39 7.0 10.0 0.00 0.00 0.00 29 1018.9
20260905232447 87 33 6.0 10.0 0.00 0.00 0.00 30 1018.8
20260905231942 87 37 7.0 14.0 0.00 0.00 0.00 29 1018.8
20260905231438 87 2 10.0 14.0 0.00 0.00 0.00 29 1018.7
20260905230934 87 349 9.0 11.0 0.00 0.00 0.00 29 1018.7
20260905230432 87 337 6.0 7.0 0.00 0.00 0.00 29 1018.4
20260905225931 87 352 7.0 13.0 0.00 0.00 0.00 29 1018.6
20260905225426 87 6 7.0 8.0 0.00 0.00 0.00 29 1018.2
20260905224921 87 88 7.0 11.0 0.00 0.00 0.00 29 1018.4
20260905224417 88 3 13.0 17.0 0.00 0.00 0.00 28 1018.6
20260905223916 87 178 0.0 3.0 0.00 0.00 0.00 28 1018.7
20260905223415 87 56 8.0 13.0 0.00 0.00 0.00 28 1018.6
20260905222915 88 5 6.0 10.0 0.00 0.00 0.00 29 1018.6
20260905222414 87 88 9.0 10.0 0.00 0.00 0.00 28 1018.4
20260905221910 87 64 5.0 6.0 0.00 0.00 0.00 29 1018.8
20260905221407 88 49 6.0 13.0 0.00 0.00 0.00 28 1018.7
20260905220902 87 59 6.0 10.0 0.00 0.00 0.00 28 1018.4
20260905220358 87 54 1.0 13.0 0.00 0.00 0.00 28 1018.7
20260905215857 87 59 9.0 11.0 0.00 0.00 0.00 27 1018.9
20260905215353 88 30 7.0 13.0 0.00 0.00 0.00 28 1018.9
20260905214849 88 44 4.0 8.0 0.00 0.00 0.00 28 1018.9
20260905214344 88 47 4.0 7.0 0.00 0.00 0.00 27 1019.1
20260905213839 87 34 10.0 16.0 0.00 0.00 0.00 27 1019.1
20260905213336 87 104 6.0 8.0 0.00 0.00 0.00 27 1019.3
20260905212836 87 60 9.0 11.0 0.00 0.00 0.00 27 1019.4
20260905212336 87 359 1.0 6.0 0.00 0.00 0.00 27 1019.5
20260905211830 87 123 0.0 16.0 0.00 0.00 0.00 28 1019.5
20260905211326 87 50 2.0 6.0 0.00 0.00 0.00 28 1019.5
20260905210822 87 62 4.0 9.0 0.00 0.00 0.00 27 1019.9
20260905210321 87 34 3.0 8.0 0.00 0.00 0.00 28 1019.9
20260905205821 87 75 6.0 9.0 0.00 0.00 0.00 27 1019.6
20260905205315 88 17 10.0 14.0 0.00 0.00 0.00 27 1019.7
20260905204815 87 55 7.0 8.0 0.00 0.00 0.00 26 1020.0
20260905204311 86 81 2.0 11.0 0.00 0.00 0.00 28 1020.0
20260905203810 87 61 7.0 14.0 0.00 0.00 0.00 27 1020.2
20260905203306 87 80 12.0 16.0 0.00 0.00 0.00 27 1020.3
20260905202801 88 81 5.0 11.0 0.00 0.00 0.00 27 1020.1
20260905202256 86 52 13.0 21.0 0.00 0.00 0.00 27 1020.0
20260905201751 87 40 3.0 6.0 0.00 0.00 0.00 27 1020.1
20260905201246 87 102 8.0 9.0 0.00 0.00 0.00 26 1020.3
20260905200741 86 34 6.0 14.0 0.00 0.00 0.00 28 1020.3
20260905200237 87 81 5.0 10.0 0.00 0.00 0.00 28 1020.3
20260905195735 87 79 3.0 11.0 0.00 0.00 0.00 27 1020.2
20260905195230 86 69 5.0 14.0 0.00 0.00 0.00 28 1020.4
20260905194726 87 34 6.0 17.0 0.00 0.00 0.00 26 1020.4
20260905194225 87 47 10.0 13.0 0.00 0.00 0.00 28 1020.3
20260905193719 86 21 12.0 17.0 0.00 0.00 0.00 26 1020.4
20260905193214 87 40 9.0 14.0 0.00 0.00 0.00 27 1020.3
20260905192710 87 63 5.0 15.0 0.00 0.00 0.00 25 1020.3
20260905192206 87 70 7.0 14.0 0.00 0.00 0.00 26 1020.3
20260905191705 86 34 7.0 15.0 0.00 0.00 0.00 27 1020.6
20260905191203 86 49 4.0 10.0 0.00 0.00 0.00 26 1020.6
20260905190702 85 14 11.0 14.0 0.00 0.00 0.00 27 1020.3
20260905190201 86 22 12.0 17.0 0.00 0.00 0.00 27 1020.6
20260905185700 87 37 7.0 14.0 0.00 0.00 0.00 25 1020.6
20260905185155 86 13 5.0 8.0 0.00 0.00 0.00 28 1020.3
20260905184655 87 19 9.0 17.0 0.00 0.00 0.00 26 1020.3
20260905184154 85 52 5.0 15.0 0.00 0.00 0.00 27 1020.4
20260905183648 85 19 12.0 20.0 0.00 0.00 0.00 27 1020.4
20260905183143 86 52 7.0 14.0 0.00 0.00 0.00 27 1020.3
20260905182642 87 12 18.0 23.0 0.00 0.00 0.00 26 1020.4
20260905182142 87 41 7.0 15.0 0.00 0.00 0.00 26 1020.4
20260905181638 87 29 9.0 17.0 0.00 0.00 0.00 25 1020.6
20260905181137 87 332 16.0 22.0 0.00 0.00 0.00 25 1020.4
20260905180632 87 47 12.0 16.0 0.00 0.00 0.00 26 1020.7
20260905180127 86 11 17.0 21.0 0.00 0.00 0.00 25 1020.7
20260905175626 86 32 13.0 21.0 0.00 0.00 0.00 25 1020.7
20260905175122 86 18 11.0 22.0 0.00 0.00 0.00 26 1020.7
20260905174617 86 36 14.0 22.0 0.00 0.00 0.00 27 1020.7
20260905174112 86 30 15.0 21.0 0.00 0.00 0.00 26 1020.7
20260905173609 86 71 13.0 21.0 0.00 0.00 0.00 26 1020.9
20260905173104 86 12 14.0 17.0 0.00 0.00 0.00 25 1020.8
20260905172603 86 6 15.0 18.0 0.00 0.00 0.00 26 1020.7
20260905172058 85 19 14.0 25.0 0.00 0.00 0.00 26 1020.8
20260905171554 86 35 17.0 21.0 0.00 0.00 0.00 26 1020.9
20260905171050 85 10 16.0 21.0 0.00 0.00 0.00 26 1020.8
20260905170547 85 4 14.0 20.0 0.00 0.00 0.00 26 1020.6
20260905170041 85 19 20.0 24.0 0.00 0.00 0.00 26 1020.9
20260905165536 85 2 14.0 22.0 0.00 0.00 0.00 26 1021.0
20260905165026 85 39 11.0 20.0 0.00 0.00 0.00 27 1020.6
20260905164526 84 344 12.0 21.0 0.00 0.00 0.00 27 1020.4
20260905164020 84 22 14.0 22.0 0.00 0.00 0.00 27 1021.0
20260905163517 84 355 16.0 22.0 0.00 0.00 0.00 27 1021.2
20260905163013 84 4 11.0 21.0 0.00 0.00 0.00 28 1021.2
20260905162508 84 334 15.0 23.0 0.00 0.00 0.00 27 1020.6
20260905162003 83 18 16.0 24.0 0.00 0.00 0.00 27 1020.6
20260905161502 83 312 13.0 25.0 0.00 0.00 0.00 27 1020.6
20260905161000 83 329 19.0 25.0 0.00 0.00 0.00 27 1020.6
20260905160454 83 7 17.0 21.0 0.00 0.00 0.00 27 1020.6
20260905155953 82 3 20.0 25.0 0.00 0.00 0.00 27 1020.8
20260905155449 82 296 13.0 21.0 0.00 0.00 0.00 27 1020.6
20260905154947 82 3 15.0 23.0 0.00 0.00 0.00 28 1020.9
20260905154442 82 6 18.0 21.0 0.00 0.00 0.00 27 1020.6
20260905153938 82 15 15.0 24.0 0.00 0.00 0.00 28 1020.7
20260905153434 82 353 18.0 22.0 0.00 0.00 0.00 27 1020.7
20260905152933 82 351 12.0 20.0 0.00 0.00 0.00 28 1020.9
20260905152433 81 357 13.0 24.0 0.00 0.00 0.00 28 1020.7
20260905151928 81 344 12.0 22.0 0.00 0.00 0.00 28 1020.6
20260905151424 80 325 13.0 17.0 0.00 0.00 0.00 29 1020.6
20260905150924 80 344 14.0 23.0 0.00 0.00 0.00 30 1020.2
20260905150419 79 3 11.0 23.0 0.00 0.00 0.00 31 1020.2
20260905145915 79 309 17.0 23.0 0.00 0.00 0.00 30 1020.2
20260905145410 79 5 17.0 26.0 0.00 0.00 0.00 30 1020.1
20260905144909 79 326 19.0 24.0 0.00 0.00 0.00 31 1020.2
20260905144405 78 320 17.0 21.0 0.00 0.00 0.00 31 1020.1
20260905143903 78 298 15.0 20.0 0.00 0.00 0.00 32 1020.2
20260905143358 78 285 15.0 20.0 0.00 0.00 0.00 33 1020.4
20260905142857 77 317 14.0 20.0 0.00 0.00 0.00 34 1020.3
20260905142356 75 302 16.0 21.0 0.00 0.00 0.00 36 1020.1
20260905141852 74 318 13.0 16.0 0.00 0.00 0.00 39 1020.3
20260905141347 74 309 15.0 20.0 0.00 0.00 0.00 38 1020.3
20260905140843 74 309 14.0 17.0 0.00 0.00 0.00 39 1019.9
20260905140343 73 319 13.0 17.0 0.00 0.00 0.00 40 1020.1
20260905135842 73 312 14.0 16.0 0.00 0.00 0.00 40 1020.0
20260905135338 71 306 17.0 22.0 0.00 0.00 0.00 43 1019.9
20260905134833 70 313 20.0 25.0 0.00 0.00 0.00 44 1019.7
20260905134326 69 302 14.0 24.0 0.00 0.00 0.00 46 1019.9
20260905133820 68 314 13.0 21.0 0.00 0.00 0.00 46 1020.0
20260905133316 68 282 12.0 23.0 0.00 0.00 0.00 47 1019.6
20260905132815 67 307 15.0 21.0 0.00 0.00 0.00 48 1020.0
20260905132311 65 289 9.0 14.0 0.00 0.00 0.00 50 1020.0
20260905131805 64 312 15.0 20.0 0.00 0.00 0.00 55 1019.6
20260905131301 62 283 6.0 9.0 0.00 0.00 0.00 57 1019.6
20260905130801 61 297 7.0 10.0 0.00 0.00 0.00 59 1019.6
20260905130259 61 291 8.0 10.0 0.00 0.00 0.00 60 1019.7
20260905125755 61 298 7.0 11.0 0.00 0.00 0.00 59 1019.5
20260905125250 60 275 7.0 11.0 0.00 0.00 0.00 60 1019.5
20260905124747 59 263 7.0 11.0 0.00 0.00 0.00 61 1019.4
20260905124243 58 232 6.0 7.0 0.00 0.00 0.00 65 1019.4
20260905123738 59 234 5.0 9.0 0.00 0.00 0.00 63 1019.1
20260905123235 57 298 7.0 10.0 0.00 0.00 0.00 63 1019.5
20260905122734 57 302 6.0 7.0 0.00 0.00 0.00 67 1019.1
20260905122228 57 242 6.0 7.0 0.00 0.00 0.00 64 1019.5
20260905121724 56 289 4.0 6.0 0.00 0.00 0.00 66 1019.3
20260905121221 55 288 5.0 8.0 0.00 0.00 0.00 69 1019.3
20260905120719 55 277 5.0 7.0 0.00 0.00 0.00 69 1019.1
20260905120214 56 285 5.0 7.0 0.00 0.00 0.00 68 1019.5
20260905115714 55 303 4.0 5.0 0.00 0.00 0.00 68 1019.3
20260905115208 55 292 3.0 5.0 0.00 0.00 0.00 69 1019.3
20260905114708 56 275 5.0 6.0 0.00 0.00 0.00 68 1019.1
20260905114206 56 297 3.0 6.0 0.00 0.00 0.00 67 1019.4
20260905113707 55 323 5.0 5.0 0.00 0.00 0.00 68 1019.5
20260905113203 55 289 3.0 3.0 0.00 0.00 0.00 68 1019.4
20260905112702 56 284 6.0 7.0 0.00 0.00 0.00 67 1019.4
20260905112157 57 269 6.0 7.0 0.00 0.00 0.00 67 1019.5
20260905111652 57 239 3.0 3.0 0.00 0.00 0.00 66 1019.6
20260905111151 56 199 0.0 0.0 0.00 0.00 0.00 67 1019.7
20260905110651 56 256 4.0 6.0 0.00 0.00 0.00 67 1019.4
20260905110145 55 296 5.0 7.0 0.00 0.00 0.00 67 1019.5
20260905105641 55 260 5.0 6.0 0.00 0.00 0.00 68 1019.6
20260905105140 55 272 3.0 5.0 0.00 0.00 0.00 69 1019.5
20260905104635 55 253 4.0 7.0 0.00 0.00 0.00 69 1019.3
20260905104130 55 287 5.0 7.0 0.00 0.00 0.00 68 1019.5
20260905103626 55 292 7.0 7.0 0.00 0.00 0.00 69 1019.4
20260905103121 55 296 5.0 6.0 0.00 0.00 0.00 69 1019.4
20260905102617 55 185 0.0 0.0 0.00 0.00 0.00 70 1019.3
20260905102114 55 257 4.0 5.0 0.00 0.00 0.00 69 1019.3
20260905101611 55 208 1.0 2.0 0.00 0.00 0.00 71 1019.5
20260905101109 55 191 0.0 0.0 0.00 0.00 0.00 70 1019.3
20260905100606 56 192 0.0 1.0 0.00 0.00 0.00 72 1019.3
20260905100101 57 270 3.0 5.0 0.00 0.00 0.00 68 1019.3
20260905095555 57 208 0.0 0.0 0.00 0.00 0.00 68 1019.3
20260905095051 57 198 0.0 0.0 0.00 0.00 0.00 68 1019.3
20260905094546 57 197 0.0 0.0 0.00 0.00 0.00 69 1019.5
20260905094045 57 196 0.0 0.0 0.00 0.00 0.00 69 1019.3
20260905093544 57 190 0.0 0.0 0.00 0.00 0.00 69 1019.1
20260905093042 56 189 0.0 0.0 0.00 0.00 0.00 69 1019.4
20260905092536 56 196 0.0 0.0 0.00 0.00 0.00 69 1019.0
20260905092031 56 192 0.0 0.0 0.00 0.00 0.00 69 1019.0
20260905091531 56 239 0.0 0.0 0.00 0.00 0.00 70 1018.7
20260905091031 57 195 0.0 0.0 0.00 0.00 0.00 68 1018.9
20260905090531 57 203 0.0 0.0 0.00 0.00 0.00 67 1019.1
20260905090026 57 185 1.0 3.0 0.00 0.00 0.00 68 1018.9
20260905085524 57 241 0.0 0.0 0.00 0.00 0.00 67 1018.9
20260905085021 57 189 0.0 0.0 0.00 0.00 0.00 68 1018.9
20260905084520 57 194 0.0 0.0 0.00 0.00 0.00 69 1019.1
20260905084016 57 193 0.0 0.0 0.00 0.00 0.00 70 1019.1
20260905083510 57 192 0.0 0.0 0.00 0.00 0.00 70 1019.0
20260905083007 57 192 0.0 0.0 0.00 0.00 0.00 70 1019.1
20260905082502 56 206 1.0 2.0 0.00 0.00 0.00 71 1019.1
20260905081957 56 246 0.0 0.0 0.00 0.00 0.00 71 1019.3
20260905081452 56 188 0.0 0.0 0.00 0.00 0.00 72 1019.1
20260905080951 56 195 0.0 0.0 0.00 0.00 0.00 71 1019.4
20260905080446 55 203 0.0 0.0 0.00 0.00 0.00 72 1019.3
20260905075945 56 187 0.0 1.0 0.00 0.00 0.00 74 1019.6
20260905075439 57 173 0.0 0.0 0.00 0.00 0.00 67 1019.1
20260905074938 57 186 0.0 0.0 0.00 0.00 0.00 68 1018.9
20260905074434 57 186 0.0 0.0 0.00 0.00 0.00 68 1019.0
20260905073929 58 190 0.0 0.0 0.00 0.00 0.00 67 1018.9
20260905073424 58 190 0.0 0.0 0.00 0.00 0.00 66 1018.9
20260905072920 58 211 0.0 0.0 0.00 0.00 0.00 65 1018.7
20260905072415 58 237 0.0 0.0 0.00 0.00 0.00 65 1019.0
20260905071910 59 192 0.0 0.0 0.00 0.00 0.00 69 1019.3
20260905071407 59 193 0.0 2.0 0.00 0.00 0.00 62 1018.9
20260905070901 60 221 2.0 2.0 0.00 0.00 0.00 62 1019.0
20260905070357 60 190 0.0 0.0 0.00 0.00 0.00 62 1019.0
20260905065857 61 190 0.0 0.0 0.00 0.00 0.00 61 1019.1
20260905065355 60 190 0.0 0.0 0.00 0.00 0.00 61 1019.0
20260905064851 60 202 1.0 2.0 0.00 0.00 0.00 60 1019.0
20260905064346 60 188 0.0 0.0 0.00 0.00 0.00 61 1019.1
20260905063844 60 212 0.0 0.0 0.00 0.00 0.00 60 1018.9
20260905063340 60 189 0.0 0.0 0.00 0.00 0.00 60 1018.9
20260905062836 60 186 0.0 0.0 0.00 0.00 0.00 59 1018.9
20260905062331 60 191 0.0 0.0 0.00 0.00 0.00 60 1019.1
20260905061825 60 189 0.0 0.0 0.00 0.00 0.00 59 1019.0
20260905061320 61 218 0.0 0.0 0.00 0.00 0.00 62 1019.0
20260905060819 62 186 0.0 0.0 0.00 0.00 0.00 61 1018.9
20260905060316 62 188 0.0 0.0 0.00 0.00 0.00 53 1019.1
20260905055815 62 193 0.0 0.0 0.00 0.00 0.00 59 1019.0
20260905055310 62 200 1.0 2.0 0.00 0.00 0.00 59 1019.0
20260905054805 62 193 0.0 0.0 0.00 0.00 0.00 57 1019.1
20260905054302 63 214 0.0 0.0 0.00 0.00 0.00 54 1018.8
20260905053801 64 219 0.0 0.0 0.00 0.00 0.00 54 1018.9
20260905053256 64 185 0.0 0.0 0.00 0.00 0.00 52 1018.7
20260905052755 64 206 0.0 0.0 0.00 0.00 0.00 51 1018.8
20260905052250 64 226 0.0 0.0 0.00 0.00 0.00 52 1019.0
20260905051750 65 218 0.0 0.0 0.00 0.00 0.00 51 1018.8
20260905051247 65 197 0.0 0.0 0.00 0.00 0.00 51 1018.8
20260905050743 65 189 0.0 0.0 0.00 0.00 0.00 51 1018.8
20260905050239 66 183 0.0 0.0 0.00 0.00 0.00 52 1019.0
20260905045739 67 187 0.0 0.0 0.00 0.00 0.00 48 1019.1
20260905045235 67 185 0.0 0.0 0.00 0.00 0.00 50 1019.0
20260905044730 68 194 0.0 0.0 0.00 0.00 0.00 47 1019.1
20260905044225 67 192 0.0 0.0 0.00 0.00 0.00 47 1018.9
20260905043723 66 196 0.0 0.0 0.00 0.00 0.00 49 1018.8
20260905043218 67 176 0.0 0.0 0.00 0.00 0.00 47 1018.9
20260905042718 68 176 0.0 0.0 0.00 0.00 0.00 45 1019.0
20260905042217 68 176 0.0 0.0 0.00 0.00 0.00 44 1019.1
20260905041713 68 176 0.0 0.0 0.00 0.00 0.00 44 1018.8
20260905041208 66 88 0.0 0.0 0.00 0.00 0.00 51 1018.9
20260905040703 65 193 0.0 0.0 0.00 0.00 0.00 51 1018.9
20260905040202 66 190 0.0 0.0 0.00 0.00 0.00 53 1019.0